Details for United Airlines at KIAD




Go Back


Latest METAR
Local Time

KIAD 220952Z 34005KT 10SM -RA SCT039 BKN075 OVC085 23/22 A3007 RMK AO2 RAB0853E06B21 SLP178 P0002 T02280217
22/09/2018, 06:47:46

Description
Results
United Airlines Logo
Number of Pilots based at KIAD
0 Pilots Based here
Number of United Airlines Flights Departed from KIAD
2 Flights Departed
Number of United Airlines Flights Arrived at KIAD
2 Flights Arrived
Number of United Airlines Schedules Departing from KIAD
227 Schedules
Number of United Airlines Schedules Arriving at KIAD
242 Schedules
Number of United Airlines Schedules Departing from KIAD availible today
127 Schedules Today
Number of United Airlines Schedules Arriving at KIAD availible today
138 Schedules Today
Average Landing Rate at KIAD
-232 fpm
United Airlines Average Landing Rate at KIAD
-204 fpm
Total Fuel Purchased at KIAD by United Airlines
5,107.90 kgs / 11,260.88 lbs

Pilots Based at KIAD


Pilot ID
Pilot Name
Pilot Rank
No. of Flights
No. of Flying Hours
There are no pilots assigned to this hub!   Will you be the first?
Content